This demonstration page uses our WeatherBlox Daily Observations layout. Learn more.

Hourly Observations for December 29, 2017

Temp ( °F °C ) Dew Point ( °F °C ) Humidity (%) Winds ( mph kmh ) Pressure ( in mb ) Visibility ( mi km ) Precip ( " mm )
12:54 am 00:54 Cloudy 16 -8.9 10 -12.2 77 77 ENE 5 7 30.45 1031 10 16.0934 0 0
1:54 am 01:54 Mostly Clear 15 -9.4 9 -12.8 77 77 ENE 6 9 30.41 1030 10 16.0934 0 0
2:54 am 02:54 Clear 14 -10 9 -12.8 80 80 ENE 6 9 30.4 1030 10 16.0934 0 0
3:54 am 03:54 Clear 11 -11.7 7 -13.9 84 84 ENE 5 7 30.39 1029 10 16.0934 0 0
4:54 am 04:54 Clear 13 -10.6 9 -12.8 84 84 ESE 5 7 30.35 1028 9 14.48406 0 0
5:54 am 05:54 Clear 15 -9.4 10 -12.2 80 80 E 7 11 30.34 1027 9 14.48406 0 0
6:54 am 06:54 Clear 14 -10 9 -12.8 80 80 E 8 13 30.32 1027 9 14.48406 0 0
7:54 am 07:54 Sunny 14 -10 8 -13.3 77 77 ESE 7 11 30.27 1025 10 16.0934 0 0
8:54 am 08:54 Mostly Cloudy 14 -10 9 -12.8 80 80 E 6 9 30.28 1025 9 14.48406 0 0
9:21 am 09:21 Cloudy 15 -9.4 10 -12.2 80 80 E 7 11 30.3 1026 8 12.87472 0 0
9:38 am 09:38 Cloudy 16 -8.9 10 -12.2 77 77 ESE 10 17 30.3 1026 8 12.87472 0 0
9:54 am 09:54 Cloudy 16 -8.9 11 -11.7 80 80 ESE 12 19 30.23 1024 8 12.87472 0 0
10:50 am 10:50 Cloudy with Haze 18 -8 12 -11 79 79 E 8 13 30.3 1026 6 9.65604 0 0
10:54 am 10:54 Cloudy with Haze 18 -7.8 13 -10.6 81 81 E 8 13 30.23 1024 6 9.65604 0 0
11:54 am 11:54 Cloudy with Light Snow 19 -7.2 15 -9.4 84 84 E 6 9 30.22 1023 5 8.0467 0 0.0254
12:25 pm 12:25 Cloudy with Mist and Fog 20 -6.7 16 -8.9 85 85 E 8 13 30.27 1025 5 8.0467 0 0.0254
12:54 pm 12:54 Cloudy with Mist and Fog 20 -6.7 16 -8.9 85 85 ENE 8 13 30.19 1022 5 8.0467 0 0.0254
1:54 pm 13:54 Cloudy with Mist and Fog 20 -6.7 16 -8.9 85 85 NNE 12 19 30.21 1023 4 6.43736 0 0
2:38 pm 14:38 Cloudy with Mist and Fog 19 -7.2 17 -8.3 92 92 NNE 13 20 30.27 1025 2.5 4.02335 0 0
2:54 pm 14:54 Cloudy with Mist and Fog 19 -7.2 16 -8.9 88 88 NNE 13 20 30.23 1024 2 3.21868 0 0
3:01 pm 15:01 Cloudy with Mist and Fog 19 -7.2 16 -8.9 88 88 NNE 16 26 30.3 1026 1.75 2.816345 0 0
3:47 pm 15:47 Cloudy with Mist and Fog 18 -7.8 15 -9.4 88 88 N 16 26 30.3 1026 2.5 4.02335 0 0
3:54 pm 15:54 Cloudy with Mist and Fog 18 -7.8 14 -10 84 84 N 18 30 30.27 1025 4 6.43736 0 0
4:13 pm 16:13 Cloudy with Mist and Fog 17 -8.3 13 -10.6 84 84 N 17 28 30.36 1028 5 8.0467 0 0
4:54 pm 16:54 Cloudy with Haze 17 -8.3 11 -11.7 77 77 N 20 31 30.32 1027 6 9.65604 0 0
5:23 pm 17:23 Cloudy 16 -8.9 10 -12.2 77 77 N 16 26 30.39 1029 10 16.0934 0 0
5:54 pm 17:54 Cloudy 15 -9.4 10 -12.2 80 80 N 18 30 30.36 1028 8 12.87472 0 0
6:06 pm 18:06 Cloudy 15 -9.4 10 -12.2 80 80 N 17 28 30.39 1029 10 16.0934 0 0
6:42 pm 18:42 Cloudy 14 -10 8 -13.3 77 77 N 22 35 30.42 1030 10 16.0934 0 0
6:54 pm 18:54 Cloudy 13 -10.6 8 -13.3 81 81 N 23 37 30.41 1030 9 14.48406 0 0
7:04 pm 19:04 Windy with Snow Likely 13 -10.6 8 -13.3 81 81 N 24 39 30.48 1032 7 11.26538 0 0.0254
7:45 pm 19:45 Cloudy 12 -11.1 6 -14.4 77 77 N 23 37 30.5 1033 8 12.87472 0 0.0254
7:54 pm 19:54 Cloudy 12 -11.1 6 -14.4 77 77 N 17 28 30.46 1032 8 12.87472 0 0.0254
8:22 pm 20:22 Cloudy 11 -11.7 6 -14.4 81 81 N 16 26 30.5 1033 8 12.87472 0 0
8:29 pm 20:29 Cloudy with Light Snow 11 -11.7 6 -14.4 81 81 N 14 22 30.53 1034 6 9.65604 0 0.0254
8:54 pm 20:54 Cloudy with Light Snow 11 -11.7 5 -15 77 77 N 17 28 30.48 1032 6 9.65604 0 0.0254
9:54 pm 21:54 Mostly Cloudy 9 -12.8 3 -16.1 77 77 N 16 26 30.51 1033 10 16.0934 0 0.0254
10:54 pm 22:54 Mostly Clear 8 -13.3 2 -16.7 76 76 N 18 30 30.5 1033 10 16.0934 0 0
11:54 pm 23:54 Cloudy 8 -13.3 1 -17.2 73 73 N 23 37 30.53 1034 10 16.0934 0 0

Powered by AerisWeather